Location: Astronomy Club of Akron Observatory
(40.9700°N, 81.5606°W)
Time: 08:46:03
(UTC-05:00)

ATLAS 2AS CENTAUR R/B - Visible Passes

Search period start: 11 December 2016 00:00
Search period end: 21 December 2016 00:00
Orbit: 906 x 1306 km, 63.7° (Epoch: 01 December)

Date Brightness Start Highest point End Pass type
(mag) Time Alt. Az. Time Alt. Az. Time Alt. Az.
11 Dec 6.0 18:45:03 10° WNW 18:48:59 15° WSW 18:52:47 10° SW visible
12 Dec 4.8 06:42:41 10° S 06:49:18 36° ESE 06:56:21 10° NE visible
12 Dec 5.4 17:58:38 10° NW 18:04:44 25° WSW 18:10:31 10° SSW visible
13 Dec 5.5 05:59:29 10° SSE 06:04:56 22° ESE 06:10:40 10° ENE visible
14 Dec 5.9 05:17:43 10° SE 05:20:44 13° E 05:23:49 10° ENE visible
14 Dec 3.5 07:02:48 10° SSW 07:10:14 70° ESE 07:18:15 10° NE visible
15 Dec 4.2 06:18:35 10° S 06:25:37 46° ESE 06:33:10 10° NE visible
15 Dec 5.8 17:35:56 10° WNW 17:40:55 18° WSW 17:45:44 10° SW visible
16 Dec 4.9 05:34:56 10° SSE 05:41:10 30° ESE 05:47:46 10° NE visible
17 Dec 5.4 04:52:09 10° SE 04:56:52 18° ESE 05:01:47 10° ENE visible
17 Dec 3.1 06:39:09 10° SSW 06:46:43 87° ESE 06:54:51 10° NE visible
18 Dec 3.6 05:54:41 10° SSW 06:02:00 60° ESE 06:09:52 10° NE visible
19 Dec 4.3 05:10:41 10° S 05:17:27 39° ESE 05:24:40 10° NE visible
19 Dec 3.2 07:00:49 10° SW 07:08:15 53° NW 07:16:11 10° NNE visible
20 Dec 4.9 04:27:20 10° SSE 04:33:04 24° ESE 04:39:06 10° ENE visible
20 Dec 3.0 06:15:41 10° SW 06:23:15 76° NW 06:31:24 10° NNE visible
